Van Ferit Melen Airport
LTCI : now visible

Airfield :











YOU CAN JOIN US ON...

 
LOGIN :

Register | Disclaimer

   EN    FR    IT 

 









Legend :    VFR   Marginal VFR   IFR   Intensive IFR   Very Intensive IFR
Visi :
Ceiling :
>= 8 km
>= 3000ft
5 to 8 km
1000 to 3000 ft
1500m to 5 km
500 to 1000 ft
800 to 1500m
200 to 500 ft
< 800m
< 200 ft
Symbols :   Thunderstorms  Fog  Heavy snow  Heavy precipitations  Wind > 20 kt






- Airport Elevation : 5480 ft
- IATA code : VAN


LTCI - Van Ferit Melen

CURRENT METAR :
  • 220150Z 07003KT CAVOK 12/02 Q1023 NOSIG

EXPIRED METARs :
  • 220050Z 08004KT CAVOK 12/02 Q1023 NOSIG
  • 212350Z 08004KT CAVOK 14/03 Q1023 NOSIG

TAF TAF LTCI
Valid from the 22 at 00:00 until the 22 at 09:00 UTC


212240Z 2200/2209 10008KT CAVOK
BECMG 2204/2206 30012KT
BECMG 2207/2209 FEW040



MET'MAP, your aeronautical weather chart ! - Copyright ORBIFLY December 2007 - Disclaimer

ORBIFLY MET'MAP TEAM :

Programming & Development : Alexandra Zaïnal
Concept & original design : Baudouin d'Aumeries
Assistance for programming : Marc-Olivier Méhu
Technical & hardware support : Manuel Goepfert

Contact : metmap@orbifly.com




SOURCES & CREDITS :

   NOAA       Earth
Advisory